Location: Krasnoyarskiy Pitomnik
(51.1333°N, 71.6167°E)
Time: 23:13:13
(UTC+00:00)

NOSS 2-2 (C) - Pass Details

Date: 29 May 2022
Orbit: 439 x 1763 km, 63.3° (Epoch: 02 June)

Event Time Altitude Azimuth Distance (km) Brightness Sun altitude
Rises 18:23:30 0° 315° (NW) 2,869 8.0 -16.4°
Reaches altitude 10° 18:25:28 10° 316° (NW) 2,091 7.1 -16.5°
Maximum altitude 18:30:13 85° 44° (NE) 834 4.2 -16.6°
Enters shadow 18:35:20 17° 134° (SE) 2,316 6.0 -16.7°
